Location: W�rzburg
(49.7529°N, 9.8822°E)
Time: 14:56:15
(UTC+01:00)

ISS - Pass Details

Date: 06 January 2018
Orbit: 402 x 407 km, 51.6° (Epoch: 18 January)

Event Time Altitude Azimuth Distance (km) Brightness Sun altitude
Exits shadow 05:13:40 16° 72° (ENE) 1,141 -0.9 -28.5°
Drops below altitude 10° 05:14:29 10° 73° (ENE) 1,470 -0.1 -28.4°
Sets 05:16:35 0° 75° (ENE) 2,333 1.1 -28.1°
